Location: Unspecified
(0.0000°N, 0.0000°E)
Time: 03:35:21
(UTC+00:00)

Vanguard 3 - Pass Details

Date: 13 December 2017
Orbit: 508 x 3264 km, 33.4° (Epoch: 17 January)

Event Time Altitude Azimuth Distance (km) Brightness Sun altitude
Rises 03:13:14 0° 228° (SW) 7,134 11.8 -36.4°
Reaches altitude 10° 03:21:01 10° 211° (SSW) 6,208 11.6 -34.7°
Maximum altitude 03:32:49 18° 174° (S) 5,281 11.5 -32.1°
Drops below altitude 10° 03:43:07 10° 136° (SE) 5,382 12.1 -29.8°
Sets 03:48:56 0° 118° (ESE) 5,911 12.8 -28.5°
